Regional Weather Roundup
Issued by NWS

Home | Current Version | Previous Version | Graphics & Text | Print | Product List | Glossary On
Versions: 1 2 3 4 5 6 7 8 9 10 11 12 13 14 15 16 17 18 19 20 21 22 23 24 25 26 27 28 29 30 31 32 33 34 35 36 37 38 39 40 41 42 43 44 45 46 47 48 49 50
649
ASUS43 KFSD 231810
RWRSD

WEATHER ROUNDUP FOR SOUTH DAKOTA
NATIONAL WEATHER SERVICE SIOUX FALLS SD
100 PM CDT MON OCT 23 2017

NOTE: "FAIR" INDICATES FEW OR NO CLOUDS BELOW 12,000 FEET WITH NO
SIGNIFICANT WEATHER AND/OR OBSTRUCTIONS TO VISIBILITY.


SDZ001>005-009-010-012>017-231900-
NORTHWEST AND NORTH CENTRAL SOUTH DAKOTA

CITY           SKY/WX    TMP DP  RH WIND       PRES   REMARKS
BUFFALO          N/A     55  27  34 NW37G49   30.21R
FAITH            N/A     56  29  35 NW29G39   30.21R
MOBRIDGE       CLOUDY    56  33  42 NW28G35     N/A
$$

SDZ012>016-024>037-041>051-057-063-072>074-231900-
SOUTHWEST AND SOUTH CENTRAL SOUTH DAKOTA

CITY           SKY/WX    TMP DP  RH WIND       PRES   REMARKS
RAPID CTY ARPT SUNNY     57  21  24 NW35G45   30.29R
PIERRE         MOSUNNY   56  33  42 NW28G40   30.15R
CUSTER         MOSUNNY   46  15  28 NW13G32   30.33R
ELLSWORTH AFB  SUNNY     56  21  25 NW32G47   30.28
PHILIP         SUNNY     59  28  30 NW32G43   30.23R
PINE RIDGE     MOSUNNY   57  18  21 NW26G41   30.31S
SPEARFISH      FAIR      52  21  30 NW24G35   30.33R
WINNER         FAIR      59  32  36 NW32G47   30.17R
$$

SDZ004>011-016>023-039-040-231900-
NORTHEAST SOUTH DAKOTA

CITY           SKY/WX    TMP DP  RH WIND       PRES   REMARKS
ABERDEEN       MOSUNNY   55  37  50 NW26G33   30.05S
WATERTOWN      CLOUDY    48  37  65 NW28G37   29.99R
BROOKINGS      CLOUDY    49  36  61 NW25G38   29.97R
SISSETON         N/A     51  36  56 NW23G35   29.96R
$$

SDZ017-020-022-023-036>040-048>070-231900-
SOUTHEAST SOUTH DAKOTA

CITY           SKY/WX    TMP DP  RH WIND       PRES   REMARKS
SIOUX FALLS    CLOUDY    53  38  56 NW24G38   29.98S
HURON          PTSUNNY   54  34  46 NW26G40   30.06R
CHAMBERLAIN    PTSUNNY   56  33  41 NW32G45   30.14R
MITCHELL       CLOUDY    56  36  47 NW30G43   30.07R
YANKTON        PTSUNNY   58  34  40 NW33G41   30.03R
$$

ABBREVIATIONS USED IN REMARKS
   TC - TEMPERATURE IN CELSIUS
  WCI - WIND CHILL INDEX
   HX - HEAT INDEX
  VSB - VISIBILITY





USA.gov is the U.S. government's official web portal to all federal, state and local government web resources and services.